Find Kondor-FKA No. 2

NORAD ID: 62138 Int'l Des: 2024-223 Owner: NPOMA Country: RU operational
LEOCIRCULARRETROGRADESSO

实时位置

正在加载3D地球...

关于 Kondor-FKA No. 2

正在加载描述...

即将过境

Passes for default location (London). Set your location on the main map for personalized predictions.

高度历史

Loading altitude history...

两行轨道根数

1 62138U 24223A 26104.63976098 .00002272 00000-0 10950-3 0 9995
2 62138 97.4420 308.9985 0001683 84.4454 275.6973 15.19733507 76055
Epoch: Apr 14, 2026 • Age: 5 hours

当前状态

高度 520.1 km
速度 7.60 km/s
星下点 -33.89°S, 172.01°E
发射日期 Nov 29, 2024
运行时间 1.3 years
类型 other

技术详情

分类 Payload
质量 1050.00 kg
干质量 1050.00 kg
总质量 1050.00 kg
长度 2.50 m
直径 0.80 m
跨度 5.00 m
形状 Box+2 pan+dish
制造商 NPOMA
平台类型 Kondor
阶段状态 In Orbit
所有者/国家 NPOMA/RU

Most Searched